Location: Cruquius
(52.3348°N, 4.6319°E)
Time: 15:25:04
(UTC+00:00)

NOSS 3-3 (C) - Pass Details

Date: 30 September 2021
Orbit: 801 x 1411 km, 63.4° (Epoch: 05 October)

Event Time Altitude Azimuth Distance (km) Brightness Sun altitude
Rises 19:56:47 0° 312° (NW) 3,990 8.5 -23.9°
Reaches altitude 10° 19:59:37 10° 304° (NW) 3,115 7.7 -24.3°
Maximum altitude 20:06:16 34° 243° (WSW) 1,978 5.8 -25.2°
Enters shadow 20:12:51 13° 185° (S) 3,218 6.4 -26.0°
